Home > Weather > Jerusalem > Past weeks

Flag for Israel Weather for the Past 2 Weeks in Jerusalem, Israel

Now
68 °F

Clear.


Feels Like: 68 °F
Forecast: 54 / 69 °F
Wind: 3 mph from North

Location: Ben Gurion International Airport

Current Time: May 4, 2016 at 10:45:22 PM

Latest Report: May 4, 2016 at 9:20 PM


Visibility: 10 mi

Pressure: 29.98 "Hg (27.41 "Hg at 769m altitude)

Humidity: 69%

Dew Point: 57 °F

Location of JerusalemLocation

Historic Weather in Jerusalem — Graph

°F

Jerusalem Temperature Yesterday

Maximum temperature yesterday: 90 °F (at 12:20 PM)
Minimum temperature yesterday: 66 °F (at 5:20 AM)
Average temperature yesterday: 77 °F

High & Low Weather Summary for the Past Weeks

 TemperatureHumidityPressure
High104 °F (Apr 26, 2:50 PM)88% (Apr 27, 4:50 AM)30.04 "Hg (Apr 27, 4:50 AM)
Low59 °F (Apr 24, 6:20 AM)7% (Apr 20, 11:20 AM)29.56 "Hg (Apr 25, 12:50 AM)
Average74 °F52%29.87 "Hg
* Reported Apr 19 9:20 PM — May 4 9:20 PM, Jerusalem, Weather by CustomWeather, © 2016

Note: Actual official high and low records may vary slightly from our data, if they occured in-between our weather recording intervals... More about our weather records

Advertising

Jerusalem Weather History for the Previous 24 Hours

Scroll right to see more
 ConditionsComfort  
Time TempWeatherWind HumidityBarometerVisibility
9:20 PM
Wed, May 4
68 °FClear.3 mph69%29.98 "Hg10 mi
8:50 PM68 °FClear.3 mph64%29.98 "Hg10 mi
8:20 PM68 °FSunny.5 mph64%29.95 "Hg10 mi
7:50 PM70 °FSunny.7 mph60%29.95 "Hg10 mi
7:20 PM70 °FPassing clouds.8 mph60%29.98 "HgN/A
6:50 PM70 °FPassing clouds.9 mph60%29.98 "HgN/A
6:20 PM70 °FPassing clouds.9 mph60%29.95 "HgN/A
5:20 PM72 °FPassing clouds.10 mph53%29.98 "HgN/A
4:50 PM72 °FPassing clouds.12 mph57%29.95 "HgN/A
4:20 PM72 °FScattered clouds.12 mph53%29.95 "HgN/A
3:50 PM73 °FScattered clouds.13 mph50%29.95 "HgN/A
2:50 PM72 °FScattered clouds.14 mph50%29.95 "HgN/A
2:20 PM73 °FPassing clouds.16 mph50%29.95 "HgN/A
1:50 PM75 °FScattered clouds.15 mph50%29.95 "HgN/A
1:20 PM73 °FPassing clouds.14 mph53%29.95 "HgN/A
12:20 PM73 °FPassing clouds.14 mph47%29.95 "HgN/A
11:50 AM75 °FPassing clouds.15 mph47%29.98 "HgN/A
10:50 AM73 °FPassing clouds.13 mph47%29.95 "HgN/A
10:20 AM73 °FPassing clouds.10 mph47%29.95 "HgN/A
9:20 AM72 °FPassing clouds.10 mph61%29.95 "HgN/A
8:50 AM72 °FPassing clouds.10 mph61%29.95 "HgN/A
8:20 AM70 °FPassing clouds.12 mph69%29.92 "HgN/A
7:20 AM68 °FPassing clouds.12 mph83%29.92 "HgN/A
6:50 AM68 °FPassing clouds.12 mph83%29.92 "HgN/A
6:20 AM68 °FLight rain. Passing clouds.8 mph88%29.89 "HgN/A
5:50 AM70 °FPassing clouds.7 mph78%29.89 "HgN/A
5:20 AM70 °FPassing clouds.8 mph78%29.89 "HgN/A
4:50 AM70 °FPassing clouds.10 mph78%29.89 "HgN/A
4:20 AM70 °FPassing clouds.12 mph78%29.86 "HgN/A
3:50 AM70 °FPassing clouds.13 mph78%29.86 "HgN/A
3:20 AM72 °FClear.20 mph73%29.83 "Hg10 mi
2:50 AM72 °FClear.22 mph73%29.80 "Hg10 mi
1:50 AM73 °FClear.8 mph38%29.74 "Hg10 mi
1:20 AM73 °FClear.5 mph36%29.74 "Hg10 mi
12:50 AM75 °FClear.12 mph34%29.74 "Hg10 mi
12:20 AM73 °FClear.9 mph41%29.77 "Hg10 mi
11:50 PM
Tue, May 3
75 °FClear.6 mph36%29.83 "Hg10 mi
11:20 PM77 °FClear.2 mph30%29.83 "Hg10 mi
10:50 PM77 °FClear.1 mph30%29.83 "Hg10 mi
10:20 PM77 °FClear.6 mph30%29.80 "Hg10 mi
Weather by CustomWeather, © 2016

See weather overviewHow to use our weather pages